Regional Weather Roundup
Issued by NWS

Home | Current Version | Previous Version | Text Only | Print | Product List | Glossary On
Versions: 1 2 3 4 5 6 7 8 9 10 11 12 13 14 15 16 17 18 19 20 21 22 23 24 25 26 27 28 29 30 31 32 33 34 35 36 37 38 39 40 41 42 43 44 45 46 47 48 49 50
000
ASUS44 KOUN 201310
RWROK

WEATHER ROUNDUP FOR OKLAHOMA
NATIONAL WEATHER SERVICE NORMAN OK
800 AM CDT FRI OCT 20 2017

NOTE: "FAIR" INDICATES FEW OR NO CLOUDS BELOW 12,000 FEET WITH NO
      SIGNIFICANT WEATHER AND/OR OBSTRUCTIONS TO VISIBILITY.

OKZ001>007-009>012-014-015-017-201400-
NORTHWEST OKLAHOMA AND THE PANHANDLE

CITY           SKY/WX    TMP DP  RH WIND       PRES   REMARKS
GAGE           CLEAR     60  53  77 S17G26    29.94F
GUYMON         PTCLDY    59  54  83 S14G24    29.86F
ENID/WOODRING  MOCLDY    57  55  94 SE10      29.99F
$$

OKZ016-021>023-033>039-044-045-201400-
SOUTHWEST OKLAHOMA

CITY           SKY/WX    TMP DP  RH WIND       PRES   REMARKS
LAWTON/REGL    CLEAR     63  59  87 S9        30.03F
LAWTON/FT SILL CLEAR     63  60  93 S13G20    30.02F
FREDERICK      CLEAR     62  58  86 SE14      29.98F
CLINTON        CLEAR     59  54  83 S21       29.99F
HOBART         CLEAR     62  56  80 S17       30.00F
ALTUS AFB      CLEAR     60  55  82 SE12      29.99F
$$

OKZ018>020-024>031-201400-
CENTRAL OKLAHOMA

CITY           SKY/WX    TMP DP  RH WIND       PRES   REMARKS
OKLAHOMA CITY  CLOUDY    58  55  90 S10       30.04F
OKC/WILEY POST CLOUDY    61  56  83 S13       30.03F
OKC/TINKER AFB CLOUDY    60  55  82 S12       30.04F
STILLWATER     MOCLDY    59  53  80 S12       30.04F
GUTHRIE        CLEAR     60  55  83 S10       30.03F
$$

OKZ008-013-054>072-201400-
NORTHEAST OKLAHOMA

CITY           SKY/WX    TMP DP  RH WIND       PRES   REMARKS
TULSA          PTCLDY    58  54  86 S7        30.08F
TULSA/JONES    PTCLDY    54  53  97 CALM      30.10F
PONCA CITY     MOCLDY    61  53  75 S17G26    30.03F
BARTLESVILLE   MOCLDY    55  52  89 S5        30.10F
MUSKOGEE       CLOUDY    55  53  93 S6        30.13S
$$

OKZ032-040>043-046>053-073>077-201400-
SOUTH CENTRAL/SOUTHEAST OKLAHOMA

CITY           SKY/WX    TMP DP  RH WIND       PRES   REMARKS
ARDMORE/DWNTWN MOCLDY    57  54  88 CALM      30.08F
MCALESTER      MOCLDY    62  56  80 SE5       30.12R
$$





USA.gov is the U.S. government's official web portal to all federal, state and local government web resources and services.